Regional Weather Roundup
Issued by NWS

Home | Current Version | Previous Version | Text Only | Print | Product List | Glossary On
Versions: 1 2 3 4 5 6 7 8 9 10 11 12 13 14 15 16 17 18 19 20 21 22 23 24 25 26 27 28 29 30 31 32 33 34 35 36 37 38 39 40 41 42 43 44 45 46 47 48 49 50
000
ASUS42 KKEY 260710
RWRKEY

FLORIDA REGIONAL WEATHER ROUNDUP FOR THE FLORIDA KEYS
NATIONAL WEATHER SERVICE KEY WEST FLORIDA
300 AM EDT SUN APR 26 2015

...SOUTH FLORIDA AND THE KEYS...

CITY           SKY/WX    TMP DP  RH WIND       PRES   REMARKS
FORT MYERS     CLEAR     77  74  90 SW5       29.84F
SW REGIONAL AP CLEAR     76  73  91 W5        29.85F
NAPLES         CLEAR     80  74  81 W6        29.84F
MIAMI          CLEAR     77  72  84 SW3       29.86F
WEST KENDALL   CLEAR     73  72  96 CALM      29.86F
HOMESTEAD      CLEAR     74  72  95 CALM      29.85F
MARATHON       CLEAR     82  77  84 S8G17     29.86F HX  90
BOCA CHICA NAS CLEAR     81  75  82 S13       29.87F
KEY WEST INTL  CLEAR     82  76  81 S10       29.87F

...INTERNATIONAL WEATHER...

CITY           SKY/WX    TMP DP  RH WIND       PRES   REMARKS
NASSAU BAHAMAS NOT AVBL
CANCUN MEXICO  CLEAR     81  75  83 SE7       29.86F
COZUMEL MEXICO PTCLDY    73  73 100 CALM      29.87F

ADJACENT COASTAL WATERS...

STATION/POSITION TIME  SKY/WX   TEMP    WIND        PRES    WAVE
                                AIR SEA DIR/SP/G            HT/PER
                 (UTC)          (F)     (DEG/KT/KT) (MB)    (FT/S)
PULASKI SHOAL LI 0600            81     180/ 11/ 12 1012.0F
SAND KEY         0650            81     180/ 11/ 13 1011.7F
SOMBRERO KEY     0700            81     180/ 15/ 16 1011.4F
LONG KEY         0600            82 87  170/ 10/ 11 1012.5F
MOLASSES REEF    0700            80 81  210/ 10/ 11 1010.8F
FOWEY ROCKS      NOT AVBL

$$


USA.gov is the U.S. government's official web portal to all federal, state and local government web resources and services.